SCP
-0 -0 0 -0 -0 -0 0 -0 -0 0 0 0 0 0 0 0 0 0 0 0 0 0 0 0 0 0 0 0 0 0 0 0 0 0 0 0 0 0 0 0 0 0 0 0 0 0 0 0 0
0 0 -0 -0 -0 -0 -0 0 -0 -0 0 0 0 0 0 0 0 0 0 0 0 0 0 0 0 0 0 0 0 0 0 0 0 0 0 0 0 0 0 0 0 0 0 0 0 0 0 0 0
0 0 0 -0 0 0 0 0 -0 -0 -0 0 0 0 0 0 0 0 0 0 0 0 0 0 0 0 0 0 0 0 0 0 0 0 0 0 0 0 0 0 0 0 0 0 0 0 0 0 0
0 0 0 0 -0 -0 0 0 -0 -0 -0 0 0 0 0 0 0 0 0 0 0 0 0 0 0 0 0 0 0 0 0 0 0 0 0 0 0 0 0 0 0 0 0 0 0 0 0 0 0
0 0 0 0 -0 0 0 -0 -0 -0 -0 -0 0 0 0 -0 0 0 0 0 0 0 0 0 0 0 0 0 0 0 0 0 0 0 0 0 0 0 0 0 0 0 0 0 0 0 0 0 0
0 0 0 0 0 0 0 -0 -0 -0 -0 -0 0 0 0 -0 0 0 0 0 0 0 0 0 0 0 0 0 0 0 0 0 0 0 0 0 0 0 0 0 0 0 0 0 0 0 0 0 0
0 0 0 0 0 0 -0 -0 -0 -0 -0 -0 0 0 0 0 0 0 0 0 0 0 0 0 0 0 0 0 0 0 0 0 0 0 0 0 0 0 0 0 0 0 0 0 0 0 0 0 0
0 0 0 0 0 0 0 0 0 -0 -0 0 -0 0 0 0 0 0 0 0 0 0 0 0 0 0 0 0 0 0 0 0 0 0 0 0 0 0 0 0 0 0 0 0 0 0 0 0 0
0 0 0 0 0 0 0 0 0 0 -0 -0 0 0 0 -0 0 0 0 0 0 0 0 0 0 0 0 0 0 0 0 0 0 0 0 0 0 0 0 0 0 0 0 0 0 0 0 0 0
0 0 0 0 0 0 0 0 0 0 0 0 0 0 -0 -0 0 0 0 0 0 0 0 0 0 0 0 0 0 0 0 0 0 0 0 0 0 0 0 0 0 0 0 0 0 0 0 0 0
0 0 0 0 0 0 0 0 0 0 -0 -0 -0 -0 -0 -0 0 0 0 0 0 0 0 0 0 0 0 0 0 0 0 0 0 0 0 0 0 0 0 0 0 0 0 0 0 0 0 0 0
0 0 0 0 0 0 0 0 0 0 0 0 0 -0 -0 -0 -0 0 0 0 0 0 0 0 0 0 0 0 0 0 0 0 0 0 0 0 0 0 0 0 0 0 0 0 0 0 0 0 0
0 0 0 0 0 0 0 0 0 0 0 0 0 0 -0 -0 0 0 0 0 0 0 0 0 0 0 0 0 0 0 0 0 0 0 0 0 0 0 0 0 0 0 0 0 0 0 0 0 0
0 0 0 0 0 0 0 0 0 0 0 0 0 0 0 0 0 0 0 0 0 0 0 0 0 0 0 0 0 0 0 0 0 0 0 0 0 0 0 0 0 0 0 0 0 0 0 0 0
0 0 0 0 0 0 0 0 0 0 0 0 0 0 0 0 0 0 0 0 0 0 0 0 0 0 0 0 0 0 0 0 0 0 0 0 0 0 0 0 0 0 0 0 0 0 0 0 0
0 0 0 0 0 0 0 0 0 0 0 0 0 0 0 0 0 0 0 0 0 0 0 0 0 0 0 0 0 0 0 0 0 0 0 0 0 0 0 0 0 0 0 0 0 0 0 0 0
0 0 0 0 0 0 0 0 0 0 0 0 0 0 0 0 0 0 0 0 0 0 0 0 0 0 0 0 0 0 0 0 0 0 0 0 0 0 0 0 0 0 0 0 0 0 0 0 0
0 0 0 0 0 0 0 0 0 0 0 0 0 0 0 0 0 0 0 0 0 0 0 0 0 0 0 0 0 0 0 0 0 0 0 0 0 0 0 0 0 0 0 0 0 0 0 0 0
0 0 0 0 0 0 0 0 0 0 0 0 0 0 0 0 0 0 0 0 0 0 0 0 0 0 0 0 0 0 0 0 0 0 0 0 0 0 0 0 0 0 0 0 0 0 0 0 0
0 0 0 0 0 0 0 0 0 0 0 0 0 0 0 0 0 0 0 0 0 0 0 0 0 0 0 0 0 0 0 0 0 0 0 0 0 0 0 0 0 0 0 0 0 0 0 0 0
0 0 0 0 0 0 0 0 0 0 0 0 0 0 0 0 0 0 0 0 0 0 0 0 0 0 0 0 0 0 0 0 0 0 0 0 0 0 0 0 0 0 0 0 0 0 0 0 0
0 0 0 0 0 0 0 0 0 0 0 0 0 0 0 0 0 0 0 0 0 0 0 0 0 0 0 0 0 0 0 0 0 0 0 0 0 0 0 0 0 0 0 0 0 0 0 0 0
0 0 0 0 0 0 0 0 0 0 0 0 0 0 0 0 0 0 0 0 0 0 0 0 0 0 0 0 0 0 0 0 0 0 0 0 0 0 0 0 0 0 0 0 0 0 0 0 0
0 0 0 0 0 0 0 0 0 0 0 0 0 0 0 0 0 0 0 0 0 0 0 0 0 0 0 0 0 0 0 0 0 0 0 0 0 0 0 0 0 0 0 0 0 0 -0 0 0
0 0 0 0 0 0 0 0 0 0 0 0 0 0 0 0 0 0 0 0 0 0 0 0 0 0 0 0 0 0 0 0 0 0 0 0 0 0 0 0 0 0 0 0 0 -0 -0 -0 -0
0 0 0 0 0 0 0 0 0 0 0 0 0 0 0 0 0 0 0 0 0 0 0 0 0 0 0 0 0 0 0 0 0 0 0 0 0 0 0 0 0 0 0 0 0 0 -0 -0 -0
0 0 0 0 0 0 0 0 0 0 0 0 0 0 0 0 0 0 0 0 0 0 0 0 0 0 0 0 0 0 0 0 0 0 0 0 0 0 -0 0 0 0 0 0 0 0 0 0 0
0 0 0 0 0 0 0 0 0 0 0 0 0 0 0 0 0 0 0 0 0 0 0 0 0 0 0 0 0 0 0 0 0 0 0 0 0 0 -0 -0 0 0 0 0 0 0 -0 -0 0
0 0 0 0 0 0 0 0 0 0 0 0 0 0 0 0 0 0 0 0 0 0 0 0 0 0 0 0 0 0 0 0 0 0 0 0 0 0 0 -0 0 0 0 -0 0 0 -0 0 0
0 0 0 0 0 0 0 0 0 0 0 0 0 0 0 0 0 0 0 0 0 0 0 0 0 0 0 0 0 0 0 0 0 0 0 0 0 0 0 -0 -0 0 0 -0 -0 0 0 0 -0
Wind_Speed_500mb
13 10 6 2 7 9 7 10 4 6 3 2 1 5 5 3 6 6 13 23 9 12 18 26 25 21 16 14 11 11 15 19 20 19 17 16 15 15 17 18 21 23 26 30 30 28 26 22 21
12 7 3 6 8 4 9 7 9 9 1 7 7 3 2 2 2 5 16 19 8 8 13 19 22 20 16 12 10 13 17 17 15 12 12 12 12 13 15 16 17 18 21 25 31 34 36 32 27
7 4 2 8 6 9 8 8 8 3 3 3 1 1 4 1 5 3 3 16 8 10 10 13 20 19 15 12 12 14 14 12 10 10 10 11 13 15 16 17 19 20 22 24 27 31 35 41 44
7 5 8 7 9 11 9 5 6 5 2 4 4 3 4 8 6 7 1 10 11 11 12 16 21 17 15 12 12 11 11 8 8 9 10 12 14 17 19 21 23 24 26 28 30 32 34 38 42
9 4 6 1 9 9 9 10 5 3 4 3 4 5 5 8 10 6 5 10 9 10 13 18 19 18 14 11 10 9 7 7 8 10 12 14 16 18 20 23 24 25 27 30 32 33 35 38 41
6 5 5 6 9 8 10 10 4 6 4 3 4 4 5 7 10 8 11 12 11 7 12 18 18 14 10 9 8 6 7 9 9 11 13 16 17 19 22 24 26 28 30 32 34 37 39 39 40
10 8 8 6 7 8 9 7 6 5 3 8 4 4 5 11 16 14 15 14 11 12 12 15 16 12 9 8 6 7 8 10 11 13 15 18 21 23 25 26 29 31 33 35 36 36 39 41 42
7 8 3 8 7 9 5 4 5 9 11 6 8 9 6 11 21 21 22 20 16 15 14 14 15 13 12 8 6 6 7 9 12 15 17 21 25 27 28 29 28 29 30 32 33 34 38 41 43
10 7 6 9 11 7 0 0 5 5 9 10 13 15 12 9 25 27 29 27 24 22 18 17 16 15 13 8 6 6 6 9 12 16 20 23 27 31 29 29 29 30 29 29 29 31 34 36 38
9 7 18 9 8 4 4 2 7 5 5 12 23 28 24 20 29 30 29 27 24 23 20 18 17 15 12 9 6 5 7 10 12 16 21 26 31 29 28 27 28 30 31 31 31 31 33 34 35
11 12 8 6 10 4 3 6 6 4 10 26 19 16 27 31 35 32 29 26 17 18 21 17 17 16 13 10 7 7 9 11 15 19 23 28 27 27 24 25 27 29 30 33 34 32 31 32 33
5 15 10 5 4 2 4 7 11 24 31 26 20 18 23 35 36 30 31 28 25 23 19 19 18 17 14 10 8 8 12 14 17 21 25 27 25 24 25 25 28 30 33 33 31 29 29 29 30
7 6 7 14 16 17 17 21 19 43 58 49 44 25 28 33 27 25 30 28 27 28 24 23 21 19 15 11 8 10 13 16 19 23 26 24 24 22 22 27 28 31 33 34 29 28 28 26 24
4 9 16 19 18 13 8 7 1 11 4 9 17 40 37 38 31 30 37 36 34 27 26 26 22 19 16 12 10 12 14 16 20 24 23 22 21 20 24 26 29 29 29 27 28 31 31 26 23
3 7 13 16 10 12 8 13 20 47 30 30 11 8 31 46 40 42 36 36 31 26 25 26 23 19 15 13 12 14 15 16 20 23 19 20 18 19 23 28 29 28 23 31 35 33 24 20 21
1 5 4 1 10 3 8 18 8 6 18 14 20 17 17 16 12 23 33 37 34 30 30 28 24 19 16 14 14 15 16 17 20 18 17 16 15 17 21 27 28 25 29 32 33 34 32 21 19
5 7 9 13 13 5 9 14 8 2 2 10 14 20 25 21 27 23 26 34 36 34 34 31 26 20 18 16 17 16 16 17 18 16 15 11 12 15 20 26 27 33 28 26 32 31 33 29 22
11 8 9 8 3 3 6 24 21 43 39 44 38 42 46 48 26 26 29 33 36 37 35 31 28 25 22 20 18 16 14 16 16 13 11 9 11 13 18 22 25 29 33 26 28 28 25 26 24
5 5 5 5 2 5 13 18 26 40 24 39 45 46 47 40 27 30 34 34 38 39 37 35 31 27 23 19 17 15 13 15 12 10 8 8 10 10 15 18 22 25 30 25 25 21 19 18 18
1 2 7 6 2 5 9 27 21 17 13 15 22 24 19 27 31 36 37 38 39 37 36 34 29 24 21 20 17 14 13 13 10 8 7 7 7 7 11 15 21 29 28 20 19 19 16 18 24
8 11 7 6 6 2 12 17 7 2 5 5 3 6 15 25 36 39 41 39 38 35 33 30 27 23 21 19 15 13 12 10 8 7 6 6 4 2 7 15 20 28 26 18 18 13 15 12 16
11 19 13 3 8 7 6 10 10 5 9 7 7 12 21 29 33 39 42 41 37 33 33 31 27 24 22 18 15 12 10 8 7 7 5 3 3 1 6 15 20 23 24 16 13 14 18 15 12
10 10 15 7 7 3 3 2 15 4 11 14 14 18 23 28 32 38 39 36 37 36 34 31 28 27 23 19 14 10 9 8 7 7 4 1 1 2 6 12 16 18 16 14 8 12 18 15 11
15 13 14 9 6 4 14 14 11 10 12 5 8 25 27 30 32 34 37 38 39 39 36 32 30 28 24 18 13 9 9 9 7 6 5 2 4 4 4 10 16 18 16 7 9 10 11 12 9
3 11 5 5 4 11 3 5 15 8 9 10 15 29 30 32 36 39 41 43 43 41 37 34 32 28 23 18 13 10 9 10 9 7 6 4 4 6 3 6 12 16 17 8 7 7 8 9 11
14 14 12 15 9 6 4 14 13 9 15 11 12 25 30 34 36 38 39 41 41 39 37 35 32 28 22 17 14 10 9 10 11 8 7 6 6 7 4 4 8 13 11 9 8 9 6 8 14
13 13 9 13 4 5 9 13 18 10 8 10 14 29 34 34 35 35 37 39 39 39 36 33 31 28 23 19 16 11 9 9 12 10 8 8 8 9 7 2 5 9 11 10 8 7 8 17 23
9 13 6 4 7 7 8 10 10 11 18 15 14 27 31 31 33 35 36 37 38 36 33 33 32 27 24 21 16 13 11 10 13 11 9 10 9 10 9 5 3 6 10 6 15 13 11 28 23
7 7 6 8 9 11 3 12 14 16 18 20 16 27 29 29 31 34 33 34 36 36 36 34 33 31 26 21 18 16 14 11 14 13 11 11 10 10 10 10 6 4 1 4 14 18 14 25 25
5 11 13 10 12 4 5 12 3 11 14 27 28 26 22 26 27 28 30 33 37 38 38 36 33 32 27 24 22 19 18 15 14 15 14 13 12 11 11 11 8 7 5 7 10 19 19 17 18
Wind_Direction_500mb
273 272 272 307 49 63 267 259 264 275 265 205 141 191 234 87 152 206 159 159 143 172 188 187 206 204 212 223 239 263 288 295 291 290 291 294 290 288 285 279 274 273 268 262 259 254 254 263 261
267 259 198 102 93 78 264 256 237 230 306 112 96 127 350 337 100 119 142 180 169 170 191 194 199 200 211 223 248 280 294 291 290 298 308 310 308 299 295 294 290 279 272 266 263 258 255 256 252
246 201 155 98 117 189 209 225 246 264 231 198 205 309 158 163 151 152 111 190 196 165 186 190 186 196 209 227 259 286 284 286 307 318 319 311 307 309 306 302 299 292 284 279 272 264 257 252 253
174 140 66 96 220 248 215 257 223 289 248 208 226 219 185 178 153 148 226 160 171 171 180 173 181 195 210 236 268 276 278 307 317 318 311 312 313 311 313 309 307 302 296 289 283 278 270 265 261
164 103 62 320 252 260 247 258 229 250 267 227 190 258 236 203 193 190 174 156 158 166 174 171 185 197 217 250 266 274 302 314 316 314 317 317 320 322 315 312 309 304 298 292 287 281 274 268 266
122 93 72 223 246 253 275 232 204 217 236 237 226 195 240 210 183 182 164 159 150 166 175 181 193 208 237 261 273 305 317 316 324 320 324 326 324 318 318 315 309 301 295 289 284 281 280 275 267
128 101 218 213 245 288 226 184 207 199 243 238 211 190 245 203 179 175 170 171 168 172 185 191 198 215 245 271 301 311 314 326 323 330 331 328 327 328 324 318 311 305 301 298 296 289 281 276 269
166 97 160 250 215 256 206 195 176 184 238 208 206 225 253 203 191 185 183 186 186 184 192 201 205 218 235 246 260 290 315 325 327 329 332 333 330 327 322 317 315 312 311 308 302 296 288 280 277
156 69 216 245 171 252 287 213 190 239 252 232 218 233 238 224 200 197 194 195 198 197 199 204 209 222 232 235 255 288 314 322 326 331 334 332 330 327 328 327 324 321 322 318 312 304 298 292 284
136 147 218 202 203 267 328 356 318 319 267 256 250 243 241 227 209 210 210 207 206 207 205 206 210 222 232 237 258 296 317 323 329 331 333 334 333 334 333 332 334 336 336 332 324 316 312 306 298
182 203 213 237 231 241 283 285 262 250 262 247 252 270 240 214 208 213 218 222 227 213 211 214 214 218 227 242 262 299 318 322 330 332 334 335 335 335 338 341 343 341 335 330 324 320 311 303 297
244 241 222 268 203 238 230 289 278 240 253 272 271 269 246 212 208 215 220 220 220 222 218 218 221 224 229 241 264 300 316 323 328 332 334 334 338 340 343 346 346 342 339 336 331 327 325 321 319
222 270 222 262 265 269 267 257 255 269 280 273 256 253 225 208 217 232 226 225 223 220 217 220 222 227 231 237 262 295 312 316 324 328 333 336 341 346 354 352 348 343 341 333 334 332 333 330 320
209 266 273 278 266 247 234 258 258 254 249 343 261 232 220 221 234 241 230 226 225 220 217 218 218 220 227 234 254 282 295 312 319 328 335 335 343 354 359 354 347 349 355 7 2 345 335 335 326
254 313 312 232 231 227 204 277 234 256 265 263 256 241 230 237 241 246 242 238 235 230 218 217 215 219 223 230 250 274 293 309 318 328 334 338 349 358 1 354 355 0 14 20 6 352 345 341 336
232 73 316 317 142 200 163 267 270 12 236 233 223 237 218 201 241 245 234 231 230 224 217 214 215 219 225 233 251 272 292 308 321 326 334 342 353 5 360 357 1 10 21 17 10 359 5 357 343
356 235 209 312 187 130 175 275 283 194 96 295 253 222 208 225 277 245 217 211 217 216 212 212 212 218 225 232 248 270 288 310 322 327 335 345 358 5 0 0 9 6 20 24 11 3 13 16 30
202 227 236 244 177 191 226 264 279 276 284 282 277 261 254 268 261 218 204 200 203 203 207 208 209 214 219 229 243 262 289 311 320 326 327 340 359 5 3 5 5 4 8 24 18 18 35 32 43
133 204 249 226 209 216 240 265 273 282 262 268 273 271 268 256 231 202 196 194 194 195 199 203 205 211 216 227 240 258 286 303 308 317 314 342 357 11 5 5 6 5 16 18 25 26 30 30 27
16 321 264 280 208 202 323 284 259 259 250 257 282 278 252 198 190 183 184 185 188 192 190 193 202 210 214 220 235 258 288 299 298 301 300 337 1 24 15 19 12 10 11 31 37 27 38 32 52
212 195 225 246 335 257 329 289 296 229 171 234 299 188 175 181 174 171 172 176 178 182 186 192 200 206 213 221 236 261 289 290 285 287 296 323 357 24 358 12 8 10 8 38 32 23 30 25 47
214 200 174 228 37 247 17 278 297 231 271 234 186 161 162 163 164 165 169 172 175 180 184 190 197 207 210 219 238 262 282 272 265 274 291 311 326 207 343 2 12 15 15 29 42 25 57 43 42
221 134 171 143 139 14 244 2 273 332 258 223 204 182 168 165 169 170 172 176 177 184 186 191 197 200 206 216 234 259 277 253 258 267 264 197 204 219 342 5 10 10 22 12 59 63 54 53 50
159 82 54 57 85 311 205 173 263 204 217 182 176 190 180 174 173 175 178 180 182 183 189 195 195 197 204 217 231 252 262 236 238 245 256 215 193 209 317 359 6 10 20 33 57 63 33 45 79
113 103 18 354 5 225 352 179 249 228 218 197 191 190 188 186 184 184 187 187 187 187 190 193 195 197 206 218 231 243 250 234 227 225 245 242 215 208 271 359 1 18 32 76 82 68 42 36 102
190 168 162 195 196 213 100 229 243 219 206 204 175 189 185 188 190 192 193 194 192 190 192 193 195 199 206 219 235 242 246 235 229 223 239 247 237 213 219 347 354 17 37 86 84 79 32 82 101
197 214 151 103 29 65 207 282 289 197 209 202 185 177 185 190 193 192 192 195 196 195 194 195 197 203 208 213 231 241 245 231 235 226 233 242 240 216 209 279 15 33 36 123 123 87 83 104 113
175 158 96 8 145 243 273 280 242 215 207 204 188 191 189 189 193 192 194 195 196 197 196 198 202 209 212 217 225 237 242 236 230 231 227 233 235 218 213 220 290 348 37 91 135 111 108 111 106
158 180 192 142 167 178 199 254 218 224 187 186 195 190 189 193 196 196 194 194 197 199 201 203 208 213 217 221 226 237 243 242 233 225 227 221 227 223 223 216 229 258 43 67 154 140 134 126 116
304 219 171 175 219 234 155 263 336 264 192 168 179 175 184 194 193 193 194 197 200 203 206 210 214 217 219 223 229 233 241 243 239 226 225 225 228 237 234 224 227 228 213 160 161 160 160 153 162
Wind_Speed_850mb
13 10 6 2 7 9 7 10 4 6 3 2 1 5 5 3 6 6 13 23 9 12 18 26 25 21 16 14 11 11 15 19 20 19 17 16 15 15 17 18 21 23 26 30 30 28 26 22 21
12 7 3 6 8 4 9 7 9 9 1 7 7 3 2 2 2 5 16 19 8 8 13 19 22 20 16 12 10 13 17 17 15 12 12 12 12 13 15 16 17 18 21 25 31 34 36 32 27
7 4 2 8 6 9 8 8 8 3 3 3 1 1 4 1 5 3 3 16 8 10 10 13 20 19 15 12 12 14 14 12 10 10 10 11 13 15 16 17 19 20 22 24 27 31 35 41 44
7 5 8 7 9 11 9 5 6 5 2 4 4 3 4 8 6 7 1 10 11 11 12 16 21 17 15 12 12 11 11 8 8 9 10 12 14 17 19 21 23 24 26 28 30 32 34 38 42
9 4 6 1 9 9 9 10 5 3 4 3 4 5 5 8 10 6 5 10 9 10 13 18 19 18 14 11 10 9 7 7 8 10 12 14 16 18 20 23 24 25 27 30 32 33 35 38 41
6 5 5 6 9 8 10 10 4 6 4 3 4 4 5 7 10 8 11 12 11 7 12 18 18 14 10 9 8 6 7 9 9 11 13 16 17 19 22 24 26 28 30 32 34 37 39 39 40
10 8 8 6 7 8 9 7 6 5 3 8 4 4 5 11 16 14 15 14 11 12 12 15 16 12 9 8 6 7 8 10 11 13 15 18 21 23 25 26 29 31 33 35 36 36 39 41 42
7 8 3 8 7 9 5 4 5 9 11 6 8 9 6 11 21 21 22 20 16 15 14 14 15 13 12 8 6 6 7 9 12 15 17 21 25 27 28 29 28 29 30 32 33 34 38 41 43
10 7 6 9 11 7 0 0 5 5 9 10 13 15 12 9 25 27 29 27 24 22 18 17 16 15 13 8 6 6 6 9 12 16 20 23 27 31 29 29 29 30 29 29 29 31 34 36 38
9 7 18 9 8 4 4 2 7 5 5 12 23 28 24 20 29 30 29 27 24 23 20 18 17 15 12 9 6 5 7 10 12 16 21 26 31 29 28 27 28 30 31 31 31 31 33 34 35
11 12 8 6 10 4 3 6 6 4 10 26 19 16 27 31 35 32 29 26 17 18 21 17 17 16 13 10 7 7 9 11 15 19 23 28 27 27 24 25 27 29 30 33 34 32 31 32 33
5 15 10 5 4 2 4 7 11 24 31 26 20 18 23 35 36 30 31 28 25 23 19 19 18 17 14 10 8 8 12 14 17 21 25 27 25 24 25 25 28 30 33 33 31 29 29 29 30
7 6 7 14 16 17 17 21 19 43 58 49 44 25 28 33 27 25 30 28 27 28 24 23 21 19 15 11 8 10 13 16 19 23 26 24 24 22 22 27 28 31 33 34 29 28 28 26 24
4 9 16 19 18 13 8 7 1 11 4 9 17 40 37 38 31 30 37 36 34 27 26 26 22 19 16 12 10 12 14 16 20 24 23 22 21 20 24 26 29 29 29 27 28 31 31 26 23
3 7 13 16 10 12 8 13 20 47 30 30 11 8 31 46 40 42 36 36 31 26 25 26 23 19 15 13 12 14 15 16 20 23 19 20 18 19 23 28 29 28 23 31 35 33 24 20 21
1 5 4 1 10 3 8 18 8 6 18 14 20 17 17 16 12 23 33 37 34 30 30 28 24 19 16 14 14 15 16 17 20 18 17 16 15 17 21 27 28 25 29 32 33 34 32 21 19
5 7 9 13 13 5 9 14 8 2 2 10 14 20 25 21 27 23 26 34 36 34 34 31 26 20 18 16 17 16 16 17 18 16 15 11 12 15 20 26 27 33 28 26 32 31 33 29 22
11 8 9 8 3 3 6 24 21 43 39 44 38 42 46 48 26 26 29 33 36 37 35 31 28 25 22 20 18 16 14 16 16 13 11 9 11 13 18 22 25 29 33 26 28 28 25 26 24
5 5 5 5 2 5 13 18 26 40 24 39 45 46 47 40 27 30 34 34 38 39 37 35 31 27 23 19 17 15 13 15 12 10 8 8 10 10 15 18 22 25 30 25 25 21 19 18 18
1 2 7 6 2 5 9 27 21 17 13 15 22 24 19 27 31 36 37 38 39 37 36 34 29 24 21 20 17 14 13 13 10 8 7 7 7 7 11 15 21 29 28 20 19 19 16 18 24
8 11 7 6 6 2 12 17 7 2 5 5 3 6 15 25 36 39 41 39 38 35 33 30 27 23 21 19 15 13 12 10 8 7 6 6 4 2 7 15 20 28 26 18 18 13 15 12 16
11 19 13 3 8 7 6 10 10 5 9 7 7 12 21 29 33 39 42 41 37 33 33 31 27 24 22 18 15 12 10 8 7 7 5 3 3 1 6 15 20 23 24 16 13 14 18 15 12
10 10 15 7 7 3 3 2 15 4 11 14 14 18 23 28 32 38 39 36 37 36 34 31 28 27 23 19 14 10 9 8 7 7 4 1 1 2 6 12 16 18 16 14 8 12 18 15 11
15 13 14 9 6 4 14 14 11 10 12 5 8 25 27 30 32 34 37 38 39 39 36 32 30 28 24 18 13 9 9 9 7 6 5 2 4 4 4 10 16 18 16 7 9 10 11 12 9
3 11 5 5 4 11 3 5 15 8 9 10 15 29 30 32 36 39 41 43 43 41 37 34 32 28 23 18 13 10 9 10 9 7 6 4 4 6 3 6 12 16 17 8 7 7 8 9 11
14 14 12 15 9 6 4 14 13 9 15 11 12 25 30 34 36 38 39 41 41 39 37 35 32 28 22 17 14 10 9 10 11 8 7 6 6 7 4 4 8 13 11 9 8 9 6 8 14
13 13 9 13 4 5 9 13 18 10 8 10 14 29 34 34 35 35 37 39 39 39 36 33 31 28 23 19 16 11 9 9 12 10 8 8 8 9 7 2 5 9 11 10 8 7 8 17 23
9 13 6 4 7 7 8 10 10 11 18 15 14 27 31 31 33 35 36 37 38 36 33 33 32 27 24 21 16 13 11 10 13 11 9 10 9 10 9 5 3 6 10 6 15 13 11 28 23
7 7 6 8 9 11 3 12 14 16 18 20 16 27 29 29 31 34 33 34 36 36 36 34 33 31 26 21 18 16 14 11 14 13 11 11 10 10 10 10 6 4 1 4 14 18 14 25 25
5 11 13 10 12 4 5 12 3 11 14 27 28 26 22 26 27 28 30 33 37 38 38 36 33 32 27 24 22 19 18 15 14 15 14 13 12 11 11 11 8 7 5 7 10 19 19 17 18
Wind_Direction_850mb
273 272 272 307 49 63 267 259 264 275 265 205 141 191 234 87 152 206 159 159 143 172 188 187 206 204 212 223 239 263 288 295 291 290 291 294 290 288 285 279 274 273 268 262 259 254 254 263 261
267 259 198 102 93 78 264 256 237 230 306 112 96 127 350 337 100 119 142 180 169 170 191 194 199 200 211 223 248 280 294 291 290 298 308 310 308 299 295 294 290 279 272 266 263 258 255 256 252
246 201 155 98 117 189 209 225 246 264 231 198 205 309 158 163 151 152 111 190 196 165 186 190 186 196 209 227 259 286 284 286 307 318 319 311 307 309 306 302 299 292 284 279 272 264 257 252 253
174 140 66 96 220 248 215 257 223 289 248 208 226 219 185 178 153 148 226 160 171 171 180 173 181 195 210 236 268 276 278 307 317 318 311 312 313 311 313 309 307 302 296 289 283 278 270 265 261
164 103 62 320 252 260 247 258 229 250 267 227 190 258 236 203 193 190 174 156 158 166 174 171 185 197 217 250 266 274 302 314 316 314 317 317 320 322 315 312 309 304 298 292 287 281 274 268 266
122 93 72 223 246 253 275 232 204 217 236 237 226 195 240 210 183 182 164 159 150 166 175 181 193 208 237 261 273 305 317 316 324 320 324 326 324 318 318 315 309 301 295 289 284 281 280 275 267
128 101 218 213 245 288 226 184 207 199 243 238 211 190 245 203 179 175 170 171 168 172 185 191 198 215 245 271 301 311 314 326 323 330 331 328 327 328 324 318 311 305 301 298 296 289 281 276 269
166 97 160 250 215 256 206 195 176 184 238 208 206 225 253 203 191 185 183 186 186 184 192 201 205 218 235 246 260 290 315 325 327 329 332 333 330 327 322 317 315 312 311 308 302 296 288 280 277
156 69 216 245 171 252 287 213 190 239 252 232 218 233 238 224 200 197 194 195 198 197 199 204 209 222 232 235 255 288 314 322 326 331 334 332 330 327 328 327 324 321 322 318 312 304 298 292 284
136 147 218 202 203 267 328 356 318 319 267 256 250 243 241 227 209 210 210 207 206 207 205 206 210 222 232 237 258 296 317 323 329 331 333 334 333 334 333 332 334 336 336 332 324 316 312 306 298
182 203 213 237 231 241 283 285 262 250 262 247 252 270 240 214 208 213 218 222 227 213 211 214 214 218 227 242 262 299 318 322 330 332 334 335 335 335 338 341 343 341 335 330 324 320 311 303 297
244 241 222 268 203 238 230 289 278 240 253 272 271 269 246 212 208 215 220 220 220 222 218 218 221 224 229 241 264 300 316 323 328 332 334 334 338 340 343 346 346 342 339 336 331 327 325 321 319
222 270 222 262 265 269 267 257 255 269 280 273 256 253 225 208 217 232 226 225 223 220 217 220 222 227 231 237 262 295 312 316 324 328 333 336 341 346 354 352 348 343 341 333 334 332 333 330 320
209 266 273 278 266 247 234 258 258 254 249 343 261 232 220 221 234 241 230 226 225 220 217 218 218 220 227 234 254 282 295 312 319 328 335 335 343 354 359 354 347 349 355 7 2 345 335 335 326
254 313 312 232 231 227 204 277 234 256 265 263 256 241 230 237 241 246 242 238 235 230 218 217 215 219 223 230 250 274 293 309 318 328 334 338 349 358 1 354 355 0 14 20 6 352 345 341 336
232 73 316 317 142 200 163 267 270 12 236 233 223 237 218 201 241 245 234 231 230 224 217 214 215 219 225 233 251 272 292 308 321 326 334 342 353 5 360 357 1 10 21 17 10 359 5 357 343
356 235 209 312 187 130 175 275 283 194 96 295 253 222 208 225 277 245 217 211 217 216 212 212 212 218 225 232 248 270 288 310 322 327 335 345 358 5 0 0 9 6 20 24 11 3 13 16 30
202 227 236 244 177 191 226 264 279 276 284 282 277 261 254 268 261 218 204 200 203 203 207 208 209 214 219 229 243 262 289 311 320 326 327 340 359 5 3 5 5 4 8 24 18 18 35 32 43
133 204 249 226 209 216 240 265 273 282 262 268 273 271 268 256 231 202 196 194 194 195 199 203 205 211 216 227 240 258 286 303 308 317 314 342 357 11 5 5 6 5 16 18 25 26 30 30 27
16 321 264 280 208 202 323 284 259 259 250 257 282 278 252 198 190 183 184 185 188 192 190 193 202 210 214 220 235 258 288 299 298 301 300 337 1 24 15 19 12 10 11 31 37 27 38 32 52
212 195 225 246 335 257 329 289 296 229 171 234 299 188 175 181 174 171 172 176 178 182 186 192 200 206 213 221 236 261 289 290 285 287 296 323 357 24 358 12 8 10 8 38 32 23 30 25 47
214 200 174 228 37 247 17 278 297 231 271 234 186 161 162 163 164 165 169 172 175 180 184 190 197 207 210 219 238 262 282 272 265 274 291 311 326 207 343 2 12 15 15 29 42 25 57 43 42
221 134 171 143 139 14 244 2 273 332 258 223 204 182 168 165 169 170 172 176 177 184 186 191 197 200 206 216 234 259 277 253 258 267 264 197 204 219 342 5 10 10 22 12 59 63 54 53 50
159 82 54 57 85 311 205 173 263 204 217 182 176 190 180 174 173 175 178 180 182 183 189 195 195 197 204 217 231 252 262 236 238 245 256 215 193 209 317 359 6 10 20 33 57 63 33 45 79
113 103 18 354 5 225 352 179 249 228 218 197 191 190 188 186 184 184 187 187 187 187 190 193 195 197 206 218 231 243 250 234 227 225 245 242 215 208 271 359 1 18 32 76 82 68 42 36 102
190 168 162 195 196 213 100 229 243 219 206 204 175 189 185 188 190 192 193 194 192 190 192 193 195 199 206 219 235 242 246 235 229 223 239 247 237 213 219 347 354 17 37 86 84 79 32 82 101
197 214 151 103 29 65 207 282 289 197 209 202 185 177 185 190 193 192 192 195 196 195 194 195 197 203 208 213 231 241 245 231 235 226 233 242 240 216 209 279 15 33 36 123 123 87 83 104 113
175 158 96 8 145 243 273 280 242 215 207 204 188 191 189 189 193 192 194 195 196 197 196 198 202 209 212 217 225 237 242 236 230 231 227 233 235 218 213 220 290 348 37 91 135 111 108 111 106
158 180 192 142 167 178 199 254 218 224 187 186 195 190 189 193 196 196 194 194 197 199 201 203 208 213 217 221 226 237 243 242 233 225 227 221 227 223 223 216 229 258 43 67 154 140 134 126 116
304 219 171 175 219 234 155 263 336 264 192 168 179 175 184 194 193 193 194 197 200 203 206 210 214 217 219 223 229 233 241 243 239 226 225 225 228 237 234 224 227 228 213 160 161 160 160 153 162